Погода Александровский Завод

Погода Александровский Завод : погода сейчас, прогноз погоды и архив. Всё, что Вы хотите узнать о погоде Александровский Завод!

Хотите узнать прогноз погоды Александровский Завод? Тогда Вам сюда: Погода Александровский Завод

Поиск расширенной информации на нашем сайте:

Другие новости

Новости СМИ2

Главная страница сайта

Новости сайта

02.10.2013

Напоминаем, что на нашем новом сайте вы можете получить высокодетализированные прогнозы погоды по пунктам России, СНГ и мира (включающие важные для авиации метеовеличины, такие как направление и скорость ветра, видимость, явления погоды, количество и форма облачности, нижняя и верхняя граница облачности), а также ознакомиться с разнообразными материалами по авиационной метеорологии и подборкой полезных ссылок на эту тему.

Сайт Метеоцентр.Азия посвящён разработке технологий оптимизации авиаметеорологического обслуживания, включая проектирование и перспективное создание нескольких автоматизированных авиаметеорологических систем:
- система выпуска высокодетальных прогностических карт явлений погоды для нижнего воздушного пространства по России и ближнему зарубежью;
- система верификации прогнозов TAF (выпускаемых синоптиками официальных АМСГ РФ и ближнего зарубежья) и AUTOTAF (выпускаемых сайтом Метеоцентр.Азия) - выявление ошибок, онлайн-сопоставление с фактической погодой METAR, автоматическое внесение коррективов в прогнозы при резком отклонении фактической погоды от прогноза, подсчёт оправдываемости прогнозов по элементам и в целом;
- система обработки, анализа и отображения авиаметеорологической информации для применения провайдерами метеорологической информации.

Рекомендуем: Смотрите информацию обивка вагонкой цена на нашем сайте.

Погода Александровский Завод - сегодня

Время (UTC), дата Ветер
(°,м/с) 
Видим.   Явления Облачность Т
(°С)
Тd
(°С)
f(%) Тe
(°С)
Pmin
(гПа)
dP
(гПа)
Po
(мм)
O2
(г/м3)
Тmin Tmax R s Состояние
почвы
12 25.05.17 160 (Ю) 20000 м    10/0 средняя, верхняя 
[As trans|Ci fib]
+18.1 +5.7 44 +19  1004  0.2  686  258    +26.2       
15 25.05.17 140 (ЮВ) 10 км  слаб. дождь  10/0 средняя 
[As trans]
+16.1 +5.5 49 +16  1005.8  687  260           
18 25.05.17 220 (ЮЗ) 20000 м  {дождь}  9/0 средняя 
[As trans]
+18.6 +1.3 31 +20  1004  -1.1  686  258           
21 25.05.17 250 (З) 20000 м    8/8 600 м средняя 
[As op]
+13.3 +2.8 49 +14  1004.9  -0.5  686  263           
00 26.05.17 250 (З) 20000 м    8/5 600 м верхняя 
[Cu med, cong|Ci fib]
+18.1 +5.4 43 +20  1002.7  -0.6  685  258  +10.6    0.0    влажная 
03 26.05.17 210 (ЮЗ) 5{11}  20000 м    5/4 600 м верхняя 
[Cu med, cong|Ci fib]
+27.6 +3 21 +28  998.9  -0.8  684  250           
06 26.05.17 240 (ЮЗ) 3{10}  20000 м    5/3 600 м верхняя 
[Cu hum|Ci fib]
+31.2 +2.9 17 +31  995.9  -1.8  683  246           
09 26.05.17 260 (З) 2{10}  20000 м    6/5 600 м верхняя 
[Cu med, cong|Ci fib]
+31.4 +0.8 14 +31  993.8  -1.9  682  246           
12 26.05.17 160 (Ю) 20000 м    10/5 600 м средняя 
[Sc diur, vesp|As trans]
+24 +3.3 26 +24  995.9  682  252    +31.6       
15 26.05.17 150 (ЮВ) 20000 м    10/8 600 м средняя 
[Sc diur, vesp|As trans]
+22.3 +2.7 28 +22  997.3  0.8  682  254           
18 26.05.17 170 (Ю) 5{15}  20000 м    6/0 средняя, верхняя 
[Ac lent|Ci fib]
+21 +1.6 28 +21  997.2  -0.6  682  255           
21 26.05.17 170 (Ю) 4{10}  20000 м    10/3 600 м верхняя 
[Sc|Cs]
+18.3 +2.5 35 +19  997.4  -0.5  681  257           
06 27.05.17 030 (СВ) 5{11}  20000 м    10/8 600 м средняя 
[Sc|As trans]
+22.1 +10.5 48 +26  998.1  -0.9  683  253           
09 27.05.17 020 (С) 2{12}  20000 м    10/0 средняя 
[As trans]
+15.4 +12.2 81 +22  1000.5  0.3  683  258           
15 27.05.17 010 (С) 20000 м    4/0 средняя 
[Ac lent]
+9.4 +7.4 87 +9  1003.8  1.2  684  265           
18 27.05.17 310 (СЗ) 5{11}  20000 м    3/0 средняя 
[Ac lent]
+10.5 -0.9 45 +9  1003.5  0.1  684  265           
21 27.05.17 250 (З) 2{12}  20000 м    5/0 средняя 
[Ac lent]
+4.9 -3.8 53 +5  1006.6  685  271           
15 28.05.17 200 (Ю) 20000 м    ясно 
-3.1 -7 74 -3  1013.6  0.1  687  281           
18 28.05.17 210 (ЮЗ) 20000 м    5/0 средняя 
[Ac lent]
-0.1 -7.1 59 +1  1011  -1.3  686  277           
21 28.05.17 260 (З) 20000 м    6/0 средняя 
[Ac lent]
+2.4 -7.1 49 +2  1008.7  -1.3  685  274           
15 29.05.17 290 (З) 20000 м    ясно 
+3.6 -9.6 37 +2  1007.2  1.9  685  273           
18 29.05.17 070 (В) 20000 м    ясно 
-4.3 -8.6 72 -6  1010.1  685  281           
21 29.05.17 200 (Ю) 20000 м    3/0 средняя 
[Ac lent]
-1.5 -9.1 56 -1  1009.4  0.3  685  278           
03 30.05.17 320 (СЗ) 5{12}  20000 м    4/4 600 м 
[Cu hum]
+11 -5.5 31 +10  1003.7  -1.1  684  265           
06 30.05.17 340 (С) 6{11}  20000 м    5/5 600 м 
[Cu hum]
+13.4 -5.2 27 +12  1001.8  -0.9  683  263           
Время (UTC), дата Ветер
(°,м/с) 
Видим.   Явления Облачность Т
(°С)
Тd
(°С)
f(%) Тe
(°С)
Pmin
(гПа)
dP
(гПа)
Po
(мм)
O2
(г/м3)
Тmin Tmax R s Состояние
почвы

Для получения пояснительной информации подведите курсор к названию столбца.

ПОГОДА Александровский Завод - архив

Всё, что Вы хотите узнать о погоде Александровский Завод - удобно и подробно!

Выберите нужную дату (начиная с 1 января 2015* года) и нажмите кнопку "Найти".
Будут отображены архивные сводки погоды по пункту Александровский Завод, начиная с указанной даты.


Отображать данные в формате CSV (для использования в таблицах Excel)


Внимание! Наш архив погоды предназначен исключительно для личного некоммерческого использования в познавательных целях. Если Вам необходимы официальные справки о состоянии погоды (для производственных, юридических, коммерческих и т.п. целей), обращайтесь в органы Росгидромета.

*Примечание: данная дата относится к архиву по метеостанциям СССР (Россия, СНГ, Балтия).
Архив по метеостанциям Зарубежной Европы и Азии (кроме Китая) хранится 10 дней, по другим регионам земного шара (Китай, Африка, Америка, Австралия, Океания) - 1 день.

Александровский Завод - район местоположения метеостанции


Название, широта, долгота, высота метеостанции:
Александровский Завод 50.9°ш. 117.9°д. 807 м над ур. моря [Российская Федерация]

Дополнительная информация

В oтличие oт бoльшинства пoгoдных сайтoв мы публикуем пoдрoбную метеoинфoрмацию в детальнoм прoфессиoнальнoм фoрмате.

Характеристики температуры и влажнoсти вoздуха измеряются на высoте 2 м в тени вдали oт зданий и деревьев.
Скoрoсть ветра измеряется на высoте 10 м (на урoвне рoста челoвека скoрoсть ветра ниже в 1.5-2 раза). Если метеoстанция нахoдится в гoрoде или в лесу, тo скoрoсть ветра занижена на 2-4 м/с пo сравнению с oткрытым местoм. Скoрoсть ветра над акватoриями крупных рек и oзёр, а также на вершинах хoлмoв на 2-5 м/с выше, чем в oбычных услoвиях.
Атмoсфернoе давление в разных тoчках местнoсти мoжет значительнo oтличаться oт давления на метеoстанции, в зависимoсти oт услoвий рельефа (при пoдъёме на 10 м давление пoнижается примернo на 1 мм рт.ст.).